Akron, CO

6:21 PM MST on January 16, 2017 (GMT -0700)
Akron-Washington County

Weather History for KAKO - November, 2014

Change the Weather History Date:

Tuesday, November 4, 2014

  Actual Average Record
Temperature  
Mean Temperature 43 °F 43 °F  
Max Temperature 57 °F 56 °F 76 °F (2007)
Min Temperature 29 °F 30 °F 8 °F (1967)
Degree Days  
Heating Degree Days 22    
Month to date heating degree days 80  
Cooling Degree Days 0    
Month to date cooling degree days 0  
Moisture  
Dew Point 26 °F    
Average Humidity 62    
Maximum Humidity 100    
Minimum Humidity 24    
Precipitation  
Precipitation 0.00 in 0.02 in 0.26 in (1953)
Month to date precipitation 0.19 0.08  
Year to date precipitation 17.95 15.84  
Sea Level Pressure  
Sea Level Pressure 30.22 in    
Wind  
Wind Speed 11 mph (WSW)    
Max Wind Speed 21 mph    
Max Gust Speed 25 mph    
Visibility 10 miles    
Events      
T = Trace of Precipitation, MM = Missing Value Source: NWS Daily Summary

Daily Weather History Graph

Daily Weather History Graph

Search for Another Location

Airport or City:

Trip Planner

Search our weather history database for the weather conditions in past years. The results will help you decide how hot, cold, wet, or windy it might be!

Date:

Astronomy

Nov. 04, 2014 Rise Set
Actual Time 6:25 AM MST 4:46 PM MST
Civil Twilight 5:57 AM MST 5:14 PM MST
Nautical Twilight 5:25 AM MST 5:47 PM MST
Astronomical Twilight 4:53 AM MST 6:18 PM MST
Moon 3:34 PM MST (11/4) 3:45 AM MST (11/4)
Length of Visible Light 11h 17m
Length of Day
10h 20m
Waxing Gibbous, 94% of the Moon is Illuminated
Nov 4
Waxing Gibbous
Nov 6
Full
Nov 14
Last Quarter
Nov 22
New
Nov 29
First Quarter

Hourly Weather History & Observations

Time (MST) Temp. Windchill Dew Point Humidity Pressure Visibility Wind Dir Wind Speed Gust Speed Precip Events Conditions
12:53 AM 30.0 °F 21.7 °F 28.0 °F 92% 30.27 in 10.0 mi West 9.2 mph - N/A   Clear
1:53 AM 30.0 °F 21.1 °F 28.9 °F 96% 30.28 in 10.0 mi West 10.4 mph - N/A   Clear
2:53 AM 30.9 °F 21.2 °F 30.0 °F 96% 30.27 in 10.0 mi West 12.7 mph - N/A   Clear
3:53 AM 30.0 °F 21.7 °F 28.9 °F 96% 30.29 in 10.0 mi West 9.2 mph - N/A   Clear
4:53 AM 30.0 °F 21.7 °F 28.9 °F 96% 30.31 in 10.0 mi West 9.2 mph - N/A   Clear
5:53 AM 30.0 °F 21.1 °F 28.0 °F 92% 30.34 in 10.0 mi West 10.4 mph - N/A   Clear
6:53 AM 30.0 °F 21.1 °F 28.0 °F 92% 30.35 in 10.0 mi SW 10.4 mph - N/A   Clear
7:53 AM 35.1 °F 27.4 °F 30.9 °F 85% 30.34 in 10.0 mi SW 10.4 mph - N/A   Clear
8:53 AM 41.0 °F 34.7 °F 34.0 °F 76% 30.32 in 10.0 mi SW 10.4 mph - N/A   Clear
9:53 AM 46.9 °F - 34.0 °F 61% 30.31 in 10.0 mi WSW 9.2 mph - N/A   Clear
10:53 AM 51.1 °F - 26.1 °F 38% 30.27 in 10.0 mi WSW 12.7 mph - N/A   Clear
11:53 AM 53.1 °F - 21.0 °F 29% 30.23 in 10.0 mi WSW 13.8 mph - N/A   Clear
12:53 PM 55.0 °F - 23.0 °F 29% 30.19 in 10.0 mi West 13.8 mph - N/A   Clear
1:53 PM 55.9 °F - 21.0 °F 26% 30.18 in 10.0 mi Variable 6.9 mph - N/A   Clear
2:53 PM 55.9 °F - 19.9 °F 25% 30.15 in 10.0 mi WSW 8.1 mph - N/A   Clear
3:53 PM 55.0 °F - 21.9 °F 28% 30.14 in 10.0 mi SW 9.2 mph - N/A   Clear
4:53 PM 46.9 °F - 24.1 °F 41% 30.16 in 10.0 mi SW 6.9 mph - N/A   Clear
5:53 PM 43.0 °F 38.8 °F 24.1 °F 47% 30.17 in 10.0 mi SSW 6.9 mph - N/A   Clear
6:53 PM 42.1 °F 37.1 °F 23.0 °F 47% 30.18 in 10.0 mi SSW 8.1 mph - N/A   Clear
7:53 PM 41.0 °F 34.3 °F 26.1 °F 55% 30.14 in 10.0 mi SSW 11.5 mph - N/A   Clear
8:53 PM 42.1 °F 34.2 °F 26.1 °F 53% 30.12 in 10.0 mi SSW 16.1 mph - N/A   Clear
9:53 PM 42.1 °F 33.9 °F 26.1 °F 53% 30.10 in 10.0 mi SSW 17.3 mph 25.3 mph N/A   Clear
10:53 PM 41.0 °F 32.8 °F 26.1 °F 55% 30.09 in 10.0 mi SW 16.1 mph - N/A   Clear
11:53 PM 41.0 °F 32.5 °F 25.0 °F 53% 30.09 in 10.0 mi SW 17.3 mph - N/A   Clear